Content
SEND FEEDBACK

Daily
Averages
Monthly
Summary
United States of America

BURLINGTON, NORTH DAKOTA


Home > North America > United States > North Dakota
Elevation: 1679 feet     Latitude: 48 16N     Longitude: 101 17W

WEATHER
 
SELECT A DAY
Number of Records: 200,122;   Date Range: 1/1/95 - 8/28/14
 
SHARE

PRINT THIS DATA

[ ← Previous Day ]
WEATHER ALMANAC - JUNE 7, 2014
[ Next Day → ]
[ °C ]   °F
Weather ElementAverageHighLow
Temperature58.5 °F69.1 °F (4:54 pm)44.1 °F (4:54 am)
Dewpoint37.4 °F43 °F (10:54 pm)30.9 °F (5:54 pm)
Humidity49.7 %82 % (4:54 am)26 % (5:54 pm)
Barometer30.10 in30.14 in (3:54 am)30.06 in (6:54 pm)
Wind Speed7 mph10.4 mph (10:54 am)
Wind Gust17.3 mph (12:54 pm)
Weather ElementAverage
Visibility10 mi
Wind DirectionSSW (195.2 °)

Weather ElementTotal
Precipitation---
Heating Degree Days8.4 (Base 65)
Growing Degree Days6.6 (Base 50)
Averaged from 23 records on June 7, 2014
WEATHER CONDITIONS BREAKOUT
WIND DIRECTION BREAKOUT
WEATHER BY HOUR - JUNE 7, 2014
[ °C ]   °F
Local TimeTemperatureDewpointHumidityBarometerVisibilityWind DirectionWind SpeedGust SpeedPrecipitationEventsConditions
1:54 AM46.9 °F41.0 °F80 %30.11 in10.0 miSW (220°)8.1 mphClear
2:54 AM46.0 °F39.0 °F76 %30.11 in10.0 miSW (220°)8.1 mphClear
3:54 AM45.0 °F39.0 °F80 %30.14 in10.0 miWNW (300°)9.2 mphClear
4:54 AM44.1 °F39.0 °F82 %30.14 in10.0 miSW (220°)6.9 mphMostly Cloudy
5:54 AM45.0 °F39.0 °F80 %30.14 in10.0 miSW (220°)8.1 mphMostly Cloudy
6:54 AM48.2 °F41.0 °F76 %30.12 in10.0 miSW (230°)8.1 mphScattered Clouds
7:54 AM53.6 °F41.0 °F62 %30.12 in10.0 miWSW (240°)6.9 mphPartly Cloudy
8:54 AM57.9 °F41.0 °F53 %30.14 in10.0 miWSW (250°)5.8 mphClear
9:54 AM61.0 °F39.0 °F44 %30.14 in10.0 miWest (260°)9.2 mphClear
10:54 AM62.1 °F36.0 °F38 %30.12 in10.0 miWest (270°)10.4 mphScattered Clouds
11:54 AM64.0 °F36.0 °F35 %30.12 in10.0 miWNW (290°)10.4 mphScattered Clouds
12:54 PM66.0 °F35.1 °F32 %30.11 in10.0 miWNW (300°)9.2 mph17.3 mphScattered Clouds
1:54 PM66.0 °F34.0 °F30 %30.10 in10.0 miVariable5.8 mph17.3 mphPartly Cloudy
2:54 PM66.9 °F36.0 °F32 %30.09 in10.0 miNW (310°)9.2 mphPartly Cloudy
3:54 PM68.0 °F34.0 °F28 %30.08 in10.0 miWest (270°)10.4 mphClear
4:54 PM69.1 °F34.0 °F27 %30.07 in10.0 miWSW (240°)6.9 mphPartly Cloudy
5:54 PM66.9 °F30.9 °F26 %30.07 in10.0 miCalmPartly Cloudy
6:54 PM66.9 °F30.9 °F26 %30.06 in10.0 miSSW (210°)6.9 mphPartly Cloudy
7:54 PM68.0 °F33.1 °F27 %30.06 in10.0 miCalmPartly Cloudy
8:54 PM62.1 °F39.0 °F43 %30.06 in10.0 miEast (80°)3.5 mphClear
9:54 PM59.0 °F39.9 °F49 %30.06 in10.0 miESE (110°)6.9 mphOvercast
10:54 PM57.0 °F43.0 °F59 %30.06 in10.0 miESE (120°)5.8 mphOvercast
11:54 PM55.0 °F39.9 °F57 %30.06 in10.0 miSE (130°)5.8 mphMostly Cloudy
Hourly data recorded from KMOT, located miles away from Burlington, North Dakota







STORIES FROM OUR PARTNERS